Regional Weather Roundup
Issued by NWS

Home | Current Version | Previous Version | Text Only | Print | Product List | Glossary On
Versions: 1 2 3 4 5 6 7 8 9 10 11 12 13 14 15 16 17 18 19 20 21 22 23 24 25 26 27 28 29 30 31 32 33 34 35 36 37 38 39 40 41 42 43 44 45 46 47 48 49 50
000
ASUS46 KSEW 292010
RWRWA

WASHINGTON REGIONAL WEATHER ROUNDUP
NATIONAL WEATHER SERVICE SEATTLE WA
100 PM PDT MON MAY 29 2017

NOTE:"FAIR" INDICATES FEW OR NO CLOUDS BELOW 12,000 FEET WITH NO
SIGNIFICANT WEATHER AND/OR OBSTRUCTIONS TO VISIBILITY.

WAZ507-509-555>559-292100-
SEATTLE, TACOMA, EVERETT, AND VICINITY

CITY           SKY/WX    TMP DP  RH WIND       PRES   REMARKS
EVERETT        SUNNY     64  55  72 W6        30.01F
BOEING FIELD   SUNNY     65  56  72 VRB6      30.00F
RENTON         SUNNY     66  55  67 VRB7      30.00F
SEATAC AIRPORT MOSUNNY   63  53  70 S8        30.02F
JBLM-MCCHORD   SUNNY     65  56  74 CALM      30.01F
PUYALLUP         N/A     66  57  72 CALM      30.01F
BREMERTON      SUNNY     68  55  63 VRB5      30.01F
JBLM-FT LEWIS  NOT AVBL
TACOMA NARROWS MOSUNNY   59  53  80 CALM      30.03F
$$

WAZ001-503-506-510-514-515-292100-
NORTH INTERIOR

CITY           SKY/WX    TMP DP  RH WIND       PRES   REMARKS
BELLINGHAM     SUNNY     62  53  72 S8        30.00F
FRIDAY HARBOR  SUNNY     61  53  75 S6        30.03F
EASTSOUND      SUNNY     63  54  72 S7        30.01F
PORT ANGELES   SUNNY     58  52  80 NW8       30.03F
EDIZ HOOK      FAIR      55  49  79 NW12      30.03F
PORT TOWNSEND  FAIR      63  55  77 SW7       30.02F
NAS WHIDBEY    CLOUDY    56  48  74 NW7       30.06F
ARLINGTON      SUNNY     66  52  59 NW8       30.01F
BURLINGTON     SUNNY     63  54  72 W5        30.01F
$$

WAZ020-022-039-040-504-511-512-292100-
SOUTHWEST INTERIOR

CITY           SKY/WX    TMP DP  RH WIND       PRES   REMARKS
SHELTON        SUNNY     67  54  63 VRB5      29.99F
OLYMPIA        SUNNY     62  54  74 CALM      30.02F
CHEHALIS       FAIR      66  55  68 VRB5      30.02F
KELSO          CLOUDY    60  52  74 CALM      30.04F
VANCOUVER      CLOUDY    62  54  74 CALM      30.02F
SCAPPOOSE, OR  CLOUDY    63  56  78 VRB6      30.01F
PORTLAND, OR   CLOUDY    62  52  69 N6        30.03F
$$

WAZ021-516-517-292100-
WASHINGTON COAST

CITY           SKY/WX    TMP DP  RH WIND       PRES   REMARKS
FORKS          PTSUNNY   60  52  74 W9        30.04S
HOQUIAM        CLOUDY    56  52  86 SW8       30.05F
ASTORIA, OR    CLOUDY    55  49  80 W8        30.05F
$$

WAZ019-023-024-040-567>569-292100-
CASCADE MOUNTAINS AND COLUMBIA GORGE

CITY           SKY/WX    TMP DP  RH WIND       PRES   REMARKS
STAMPEDE PASS  SUNNY     77  41  27 VRB3      30.11F
TROUTDALE, OR  CLOUDY    62  53  72 NW5       30.03S
THE DALLES, OR SUNNY     87  54  32 NW5       29.91F
$$

WAZ026-027-041>044-520-521-292100-
EAST SLOPES

CITY           SKY/WX    TMP DP  RH WIND       PRES   REMARKS
OMAK           SUNNY     84  49  29 MISG      30.00F
WENATCHEE      SUNNY     87  45  23 SE6       29.97F
ELLENSBURG     SUNNY     89  43  20 VRB5      30.00F
YAKIMA         SUNNY     92  44  19 MISG      29.97F
SUNNYSIDE ARPT CLEAR     85  49  27 E3        29.95F
$$

WAZ028-034-035-292100-
COLUMBIA BASIN

CITY           SKY/WX    TMP DP  RH WIND       PRES   REMARKS
EPHRATA        SUNNY     88  40  18 NE8       29.98F
MOSES LAKE     SUNNY     90  42  18 VRB6      29.98F
PASCO          SUNNY     90  50  25 VRB3      29.94F
HERMISTON, OR  SUNNY     91  50  24 NE9       29.93F
$$

WAZ036>038-292100-
NORTHEAST WASHINGTON

CITY           SKY/WX    TMP DP  RH WIND       PRES   REMARKS
SPOKANE GEIGER MOSUNNY   84  45  25 NE8       30.04F
SPOKANE FELTS  SUNNY     85  49  28 N3        30.02F
FAIRCHILD AFB  SUNNY     81  47  29 N6        30.05F
COEURDALENE,ID SUNNY     83  49  30 VRB3      30.04F
DEER PARK      SUNNY     84  43  23 NE7       30.04F
$$

WAZ029>033-292100-
SOUTHEAST WASHINGTON

CITY           SKY/WX    TMP DP  RH WIND       PRES   REMARKS
PULLMAN        SUNNY     83  45  26 E5        30.05F
LEWISTON, ID   SUNNY     85  53  33 MISG      29.98F
WALLA WALLA    SUNNY     86  50  28 VRB5      29.98F
PENDLETON, OR  SUNNY     88  47  24 N5        29.97F
$$



USA.gov is the U.S. government's official web portal to all federal, state and local government web resources and services.